Weather in Tosno

Russia / Saint-Petersburg and Leningrad Oblast     59°32′26″N   30°52′39″E
temp.,
°C
wind,
m/s
gust,
m/s
humid.,
%
clouds,
%
prec.,
mm/h
press.,
hPa
HPBL,
m
10 august, wed
wed1000:00+11n11805 0.0 102610
03:00+10n118472 0.0 102710
06:00+11nnw11815 0.0 102711
09:00+18nw01515 0.0 1027342
12:00+22nnw12374 0.0 10261829
15:00+23nw223413 0.0 10252279
18:00+22nw223989 0.0 10251758
21:00+15nnw22736 0.0 102521
11 august, thu
thu1100:00+13se00795 0.0 102510
03:00+12sw118389 0.0 102512
06:00+12sw22835 0.0 102546
09:00+19sw355593 0.0 1025420
12:00+23sw464027 0.0 10241607
15:00+24sw4636100 0.0 10221795
18:00+23wsw4744100 0.0 10221504
21:00+17sw236793 0.0 102266
12 august, fri
fri1200:00+16sw31173100 0.0 1022283
03:00+16sw41274100 0.0 1022361
06:00+15wsw311816 0.0 1022317
09:00+20wsw36655 0.0 1022547
12:00+24w35495 0.0 10221325
15:00+27wnw35425 0.0 10221808
18:00+26nw344999 0.0 10211454
21:00+19wnw007897 0.0 102211
13 august, sat
sat1300:00+18sw1281100 0.0 102315
03:00+16sw1181100 0.0 102313
06:00+16ssw2282100 0.0 102341
09:00+21sw246299 0.0 1023420
12:00+25sw344440 0.0 10231257
15:00+28wsw343865 0.0 10211900
18:00+27wsw2345100 0.0 10211745
21:00+20nw2273100 0.0 102119
14 august, sun
sun1400:00+17e11825 0.0 102111
03:00+16wsw11875 0.0 102111
06:00+16sw11835 0.0 102111
09:00+23ssw125598 0.0 1021319
12:00+27ssw234276 0.0 10201285
15:00+28sw1238100 0.0 10192048
18:00+27ssw124274 0.0 10191513
21:00+21sw116230 0.0 101913